Powrót do katalogu

DELTA 1 DEB

AktywnySSO
NORAD 21439·DEBRIS·🇺🇸 United States

Wystrzelony Jun 12, 1975 z Vandenberg Space Force Base

Loading…

Następne Przeloty (najbliższe 24 godziny)

TLE

ŚwieżeSource: Space-Track

Epoka: Sep 12, 2026, 17:58 UTC

1 21439U 75052DX  26255.74887248  .00002402  00000-0  34214-2 0  9990
2 21439 100.0063 259.6118 0326641 201.4278 157.2905 13.37743537624542

Śledź DELTA 1 DEB w czasie rzeczywistym z AllMySat

Download on the App Store